Time,TemperatureF,DewpointF,PressureIn,WindDirection,WindDirectionDegrees,WindSpeedMPH,WindSpeedGustMPH,Humidity,HourlyPrecipIn,Conditions,Clouds,dailyrainin,SolarRadiationWatts/m^2,SoftwareType,DateUTC
2013-08-07 00:01:00,65.0,60.0,-100.00,ESE,120,3.0,5.0,84,0.00,,,0.00,0.000000,,2013-08-07 04:01:00,
2013-08-07 00:11:00,65.0,60.0,-100.00,ESE,120,3.0,5.0,84,0.00,,,0.00,0.000000,,2013-08-07 04:11:00,
2013-08-07 00:21:00,65.0,60.0,-100.00,ESE,120,3.0,5.0,84,0.00,,,0.00,0.000000,,2013-08-07 04:21:00,
2013-08-07 00:52:00,65.0,61.0,-100.00,SE,127,1.0,5.0,86,0.00,,,0.00,0.000000,,2013-08-07 04:52:00,
2013-08-07 01:02:00,65.0,61.0,-100.00,SE,127,1.0,5.0,86,0.00,,,0.00,0.000000,,2013-08-07 05:02:00,
2013-08-07 01:11:00,65.0,61.0,-100.00,SE,127,1.0,5.0,86,0.00,,,0.00,0.000000,,2013-08-07 05:11:00,
2013-08-07 01:22:00,65.0,61.0,-100.00,SE,127,1.0,5.0,86,0.00,,,0.00,0.000000,,2013-08-07 05:22:00,
2013-08-07 01:52:00,68.0,59.0,-100.00,South,169,2.0,5.0,74,0.00,,,0.00,0.000000,,2013-08-07 05:52:00,
2013-08-07 02:02:00,68.0,59.0,-100.00,South,169,2.0,5.0,74,0.00,,,0.00,0.000000,,2013-08-07 06:02:00,
2013-08-07 02:12:00,68.0,59.0,-100.00,South,169,2.0,5.0,74,0.00,,,0.00,0.000000,,2013-08-07 06:12:00,
2013-08-07 02:22:00,68.0,59.0,-100.00,South,169,2.0,5.0,74,0.00,,,0.00,0.000000,,2013-08-07 06:22:00,
2013-08-07 02:52:00,68.0,59.0,-100.00,South,179,2.0,8.0,74,0.00,,,0.00,0.000000,,2013-08-07 06:52:00,
2013-08-07 03:01:00,68.0,59.0,-100.00,South,179,2.0,8.0,74,0.00,,,0.00,0.000000,,2013-08-07 07:01:00,
2013-08-07 03:12:00,68.0,59.0,-100.00,South,179,2.0,8.0,74,0.00,,,0.00,0.000000,,2013-08-07 07:12:00,
2013-08-07 03:22:00,68.0,59.0,-100.00,South,179,2.0,8.0,74,0.00,,,0.00,0.000000,,2013-08-07 07:22:00,
2013-08-07 03:53:00,67.0,60.0,-100.00,SSE,148,2.0,6.0,78,0.00,,,0.00,0.000000,,2013-08-07 07:53:00,
2013-08-07 04:02:00,67.0,60.0,-100.00,SSE,148,2.0,6.0,78,0.00,,,0.00,0.000000,,2013-08-07 08:02:00,
2013-08-07 04:11:00,67.0,60.0,-100.00,SSE,148,2.0,6.0,78,0.00,,,0.00,0.000000,,2013-08-07 08:11:00,
2013-08-07 04:22:00,67.0,60.0,-100.00,SSE,148,2.0,6.0,78,0.00,,,0.00,0.000000,,2013-08-07 08:22:00,
2013-08-07 04:53:00,65.0,59.0,-100.00,South,176,2.0,6.0,80,0.00,,,0.00,0.000000,,2013-08-07 08:53:00,
2013-08-07 05:02:00,65.0,59.0,-100.00,South,176,2.0,6.0,80,0.00,,,0.00,0.000000,,2013-08-07 09:02:00,
2013-08-07 05:12:00,65.0,59.0,-100.00,South,176,2.0,6.0,80,0.00,,,0.00,0.000000,,2013-08-07 09:12:00,
2013-08-07 05:22:00,65.0,59.0,-100.00,South,176,2.0,6.0,80,0.00,,,0.00,0.000000,,2013-08-07 09:22:00,
2013-08-07 05:54:00,65.0,59.0,-100.00,South,171,2.0,8.0,80,0.00,,,0.00,0.000000,,2013-08-07 09:54:00,
2013-08-07 06:01:00,65.0,59.0,-100.00,South,171,2.0,8.0,80,0.00,,,0.00,0.000000,,2013-08-07 10:01:00,
2013-08-07 06:11:00,65.0,59.0,-100.00,South,171,2.0,8.0,80,0.00,,,0.00,0.000000,,2013-08-07 10:11:00,
2013-08-07 06:22:00,65.0,59.0,-100.00,South,171,2.0,8.0,80,0.00,,,0.00,0.000000,,2013-08-07 10:22:00,
2013-08-07 06:52:00,66.0,59.0,-100.00,SSW,192,3.0,9.0,79,0.00,,,0.00,1.000000,,2013-08-07 10:52:00,
2013-08-07 07:02:00,66.0,59.0,-100.00,SSW,192,3.0,9.0,79,0.00,,,0.00,1.000000,,2013-08-07 11:02:00,
2013-08-07 07:11:00,66.0,59.0,-100.00,SSW,192,3.0,9.0,79,0.00,,,0.00,1.000000,,2013-08-07 11:11:00,
2013-08-07 07:22:00,66.0,59.0,-100.00,SSW,192,3.0,9.0,79,0.00,,,0.00,1.000000,,2013-08-07 11:22:00,
2013-08-07 07:53:00,68.0,60.0,-100.00,South,187,3.0,7.0,76,0.00,,,0.00,51.000000,,2013-08-07 11:53:00,
2013-08-07 08:02:00,68.0,60.0,-100.00,South,187,3.0,7.0,76,0.00,,,0.00,51.000000,,2013-08-07 12:02:00,
2013-08-07 08:11:00,68.0,60.0,-100.00,South,187,3.0,7.0,76,0.00,,,0.00,51.000000,,2013-08-07 12:11:00,
2013-08-07 08:22:00,68.0,60.0,-100.00,South,187,3.0,7.0,76,0.00,,,0.00,51.000000,,2013-08-07 12:22:00,
2013-08-07 08:53:00,69.0,61.0,-100.00,SSW,211,3.0,8.0,77,0.00,,,0.00,125.000000,,2013-08-07 12:53:00,
2013-08-07 09:02:00,69.0,61.0,-100.00,SSW,211,3.0,8.0,77,0.00,,,0.00,125.000000,,2013-08-07 13:02:00,
2013-08-07 09:12:00,69.0,61.0,-100.00,SSW,211,3.0,8.0,77,0.00,,,0.00,125.000000,,2013-08-07 13:12:00,
2013-08-07 09:22:00,69.0,61.0,-100.00,SSW,211,3.0,8.0,77,0.00,,,0.00,125.000000,,2013-08-07 13:22:00,
2013-08-07 09:53:00,73.0,63.0,-100.00,SSW,206,3.0,9.0,70,0.00,,,0.00,258.000000,,2013-08-07 13:53:00,
2013-08-07 10:02:00,73.0,63.0,-100.00,SSW,206,3.0,9.0,70,0.00,,,0.00,258.000000,,2013-08-07 14:02:00,
2013-08-07 10:12:00,73.0,63.0,-100.00,SSW,206,3.0,9.0,70,0.00,,,0.00,258.000000,,2013-08-07 14:12:00,
2013-08-07 10:22:00,73.0,63.0,-100.00,SSW,206,3.0,9.0,70,0.00,,,0.00,258.000000,,2013-08-07 14:22:00,
2013-08-07 11:02:00,78.0,65.0,-100.00,SSW,205,3.0,11.0,64,0.00,,,0.00,444.000000,,2013-08-07 15:02:00,
2013-08-07 11:13:00,78.0,65.0,-100.00,SSW,205,3.0,11.0,64,0.00,,,0.00,444.000000,,2013-08-07 15:13:00,
2013-08-07 11:22:00,78.0,65.0,-100.00,SSW,205,3.0,11.0,64,0.00,,,0.00,444.000000,,2013-08-07 15:22:00,
2013-08-07 11:53:00,78.0,64.0,-100.00,SSW,211,5.0,12.0,63,0.00,,,0.00,550.000000,,2013-08-07 15:53:00,
2013-08-07 12:02:00,78.0,64.0,-100.00,SSW,211,5.0,12.0,63,0.00,,,0.00,550.000000,,2013-08-07 16:02:00,
2013-08-07 12:11:00,78.0,64.0,-100.00,SSW,211,5.0,12.0,63,0.00,,,0.00,550.000000,,2013-08-07 16:11:00,
2013-08-07 12:22:00,78.0,64.0,-100.00,SSW,211,5.0,12.0,63,0.00,,,0.00,550.000000,,2013-08-07 16:22:00,
2013-08-07 12:53:00,81.0,66.0,-100.00,SSW,195,4.0,11.0,60,0.00,,,0.00,533.000000,,2013-08-07 16:53:00,
2013-08-07 13:02:00,81.0,66.0,-100.00,SSW,195,4.0,11.0,60,0.00,,,0.00,533.000000,,2013-08-07 17:02:00,
2013-08-07 13:11:00,81.0,66.0,-100.00,SSW,195,4.0,11.0,60,0.00,,,0.00,533.000000,,2013-08-07 17:11:00,
2013-08-07 13:23:00,81.0,66.0,-100.00,SSW,195,4.0,11.0,60,0.00,,,0.00,533.000000,,2013-08-07 17:23:00,
2013-08-07 13:52:00,80.0,65.0,-100.00,SSW,203,4.0,12.0,61,0.00,,,0.00,405.000000,,2013-08-07 17:52:00,
2013-08-07 14:02:00,80.0,65.0,-100.00,SSW,203,4.0,12.0,61,0.00,,,0.00,405.000000,,2013-08-07 18:02:00,
2013-08-07 14:12:00,80.0,65.0,-100.00,SSW,203,4.0,12.0,61,0.00,,,0.00,405.000000,,2013-08-07 18:12:00,
2013-08-07 14:22:00,80.0,65.0,-100.00,SSW,203,4.0,12.0,61,0.00,,,0.00,405.000000,,2013-08-07 18:22:00,
2013-08-07 14:52:00,82.0,66.0,-100.00,SSW,199,3.0,9.0,58,0.00,,,0.00,370.000000,,2013-08-07 18:52:00,
2013-08-07 15:01:00,82.0,66.0,-100.00,SSW,199,3.0,9.0,58,0.00,,,0.00,370.000000,,2013-08-07 19:01:00,
2013-08-07 15:11:00,82.0,66.0,-100.00,SSW,199,3.0,9.0,58,0.00,,,0.00,370.000000,,2013-08-07 19:11:00,
2013-08-07 15:22:00,82.0,66.0,-100.00,SSW,199,3.0,9.0,58,0.00,,,0.00,370.000000,,2013-08-07 19:22:00,
2013-08-07 15:53:00,81.0,66.0,-100.00,South,178,2.0,13.0,61,0.00,,,0.00,397.000000,,2013-08-07 19:53:00,
2013-08-07 16:02:00,81.0,66.0,-100.00,South,178,2.0,13.0,61,0.00,,,0.00,397.000000,,2013-08-07 20:02:00,
2013-08-07 16:11:00,81.0,66.0,-100.00,South,178,2.0,13.0,61,0.00,,,0.00,397.000000,,2013-08-07 20:11:00,
2013-08-07 16:22:00,81.0,66.0,-100.00,South,178,2.0,13.0,61,0.00,,,0.00,397.000000,,2013-08-07 20:22:00,
2013-08-07 17:02:00,81.0,66.0,-100.00,SW,220,4.0,10.0,61,0.00,,,0.00,223.000000,,2013-08-07 21:02:00,
2013-08-07 17:11:00,81.0,66.0,-100.00,SW,220,4.0,10.0,61,0.00,,,0.00,223.000000,,2013-08-07 21:11:00,
2013-08-07 17:22:00,81.0,66.0,-100.00,SW,220,4.0,10.0,61,0.00,,,0.00,223.000000,,2013-08-07 21:22:00,
2013-08-07 17:52:00,73.0,67.0,-100.00,South,179,3.0,17.0,81,0.05,,,0.05,114.000000,,2013-08-07 21:52:00,
2013-08-07 18:52:00,78.0,72.0,-100.00,South,184,1.0,6.0,81,0.00,,,0.05,303.000000,,2013-08-07 22:52:00,
2013-08-07 19:02:00,78.0,72.0,-100.00,South,184,1.0,6.0,81,0.00,,,0.05,303.000000,,2013-08-07 23:02:00,
2013-08-07 19:11:00,78.0,72.0,-100.00,South,184,1.0,6.0,81,0.00,,,0.05,303.000000,,2013-08-07 23:11:00,
2013-08-07 19:22:00,78.0,72.0,-100.00,South,184,1.0,6.0,81,0.00,,,0.05,303.000000,,2013-08-07 23:22:00,
2013-08-07 19:52:00,79.0,71.0,-100.00,SSE,158,2.0,5.0,77,0.00,,,0.05,176.000000,,2013-08-07 23:52:00,
2013-08-07 20:01:00,79.0,71.0,-100.00,SSE,158,2.0,5.0,77,0.00,,,0.05,176.000000,,2013-08-08 00:01:00,
2013-08-07 20:11:00,79.0,71.0,-100.00,SSE,158,2.0,5.0,77,0.00,,,0.05,176.000000,,2013-08-08 00:11:00,
2013-08-07 20:22:00,79.0,71.0,-100.00,SSE,158,2.0,5.0,77,0.00,,,0.05,176.000000,,2013-08-08 00:22:00,
2013-08-07 20:53:00,75.0,71.0,-100.00,South,184,2.0,4.0,86,0.00,,,0.05,46.000000,,2013-08-08 00:53:00,
2013-08-07 21:02:00,75.0,71.0,-100.00,South,184,2.0,4.0,86,0.00,,,0.05,46.000000,,2013-08-08 01:02:00,
2013-08-07 21:11:00,75.0,71.0,-100.00,South,184,2.0,4.0,86,0.00,,,0.05,46.000000,,2013-08-08 01:11:00,
2013-08-07 21:22:00,75.0,71.0,-100.00,South,184,2.0,4.0,86,0.00,,,0.05,46.000000,,2013-08-08 01:22:00,
2013-08-07 21:53:00,73.0,68.0,-100.00,SSW,211,3.0,5.0,85,0.00,,,0.05,0.000000,,2013-08-08 01:53:00,
2013-08-07 22:02:00,73.0,68.0,-100.00,SSW,211,3.0,5.0,85,0.00,,,0.05,0.000000,,2013-08-08 02:02:00,
2013-08-07 22:11:00,73.0,68.0,-100.00,SSW,211,3.0,5.0,85,0.00,,,0.05,0.000000,,2013-08-08 02:11:00,
2013-08-07 22:22:00,73.0,68.0,-100.00,SSW,211,3.0,5.0,85,0.00,,,0.05,0.000000,,2013-08-08 02:22:00,
2013-08-07 22:52:00,72.0,68.0,-100.00,SW,217,3.0,6.0,87,0.00,,,0.05,0.000000,,2013-08-08 02:52:00,
2013-08-07 23:02:00,72.0,68.0,-100.00,SW,217,3.0,6.0,87,0.00,,,0.05,0.000000,,2013-08-08 03:02:00,
2013-08-07 23:12:00,72.0,68.0,-100.00,SW,217,3.0,6.0,87,0.00,,,0.05,0.000000,,2013-08-08 03:12:00,
2013-08-07 23:22:00,72.0,68.0,-100.00,SW,217,3.0,6.0,87,0.00,,,0.05,0.000000,,2013-08-08 03:22:00,
2013-08-07 23:52:00,71.0,67.0,-100.00,SW,224,4.0,6.0,88,0.00,,,0.05,0.000000,,2013-08-08 03:52:00,